Date String (YYYY-MM-DD hh:mm:ss) UTC,Instrument flags,Ambient pressure (hPa),Sample flow (lpm),Bypass flow (lpm),Sample temperature (°C),Ambient temperature (°C),ASC tube jacket temperature (°C),LED temperature (°C),Box temperature (°C),Sample RH (%),Span deviation,Mass concentration (μg/m³),Mass concentration (μg/m³),Mass concentration (μg/m³)
DateTimeUTC,F1_M11,P_M11,Q1_M11,Q2_M11,T1_M11,T2_M11,T3_M11,T4_M11,T5_M11,U1_M11,ZSPAN_M11,X0_M11,X2_M11,X1_M11
2023-05-13 10:00:00,,0836.2,5.00,0.00,24.3,22.7,00.0,32.6,25.9,27.5,0000.0,0003.67,0002.09,0001.73
2023-05-13 10:01:00,,0836.2,4.99,0.00,24.3,22.7,00.0,32.6,25.9,27.5,0000.0,0004.12,0002.12,0001.74
2023-05-13 10:02:00,,0836.2,4.99,0.00,24.3,22.7,00.0,32.6,25.9,27.3,0000.0,0004.41,0002.17,0001.74
2023-05-13 10:03:00,,0836.2,5.00,0.00,24.3,22.7,00.0,32.6,25.9,27.2,0000.0,0004.50,0002.19,0001.74
2023-05-13 10:04:00,,0836.2,5.01,0.00,24.3,22.7,00.0,32.6,25.9,27.2,0000.0,0004.51,0002.19,0001.75
2023-05-13 10:05:00,,0836.1,5.01,0.00,24.3,22.7,00.0,32.6,25.9,27.2,0000.0,0004.43,0002.20,0001.77
2023-05-13 10:06:00,,0836.1,5.00,0.00,24.3,22.7,00.0,32.6,25.9,27.3,0000.0,0004.42,0002.22,0001.79
2023-05-13 10:07:00,,0836.1,4.98,0.00,24.3,22.8,00.0,32.6,25.9,27.2,0000.0,0004.48,0002.23,0001.81
2023-05-13 10:08:00,,0836.1,5.00,0.00,24.3,22.8,00.0,32.6,25.9,27.2,0000.0,0004.60,0002.28,0001.82
2023-05-13 10:09:00,,0836.0,5.01,0.00,24.3,22.8,00.0,32.6,26.0,27.2,0000.0,0004.72,0002.33,0001.84
2023-05-13 10:10:00,,0836.0,5.00,0.00,24.3,22.8,00.0,32.6,26.0,27.2,0000.0,0004.29,0002.36,0001.88
2023-05-13 10:11:00,,0836.0,5.01,0.00,24.3,22.9,00.0,32.6,26.0,27.1,0000.0,0003.89,0002.33,0001.92
2023-05-13 10:12:00,,0836.0,5.00,0.00,24.3,22.9,00.0,32.6,26.0,27.1,0000.0,0004.34,0002.39,0001.97
2023-05-13 10:13:00,,0836.0,4.99,0.00,24.3,22.9,00.0,32.6,26.0,27.0,0000.0,0004.13,0002.41,0002.02
2023-05-13 10:14:00,,0836.0,5.00,0.00,24.3,22.9,00.0,32.6,26.0,27.0,0000.0,0004.07,0002.43,0002.06
2023-05-13 10:15:00,,0836.0,4.99,0.00,24.4,23.0,00.0,32.6,26.0,27.0,0000.0,0004.11,0002.48,0002.11
2023-05-13 10:16:00,,0836.1,5.02,0.00,24.4,23.0,00.0,32.7,26.1,27.0,0000.0,0004.23,0002.56,0002.17
2023-05-13 10:17:00,,0836.0,5.00,0.00,24.4,22.9,00.0,32.7,26.1,27.0,0000.0,0004.16,0002.57,0002.20
2023-05-13 10:18:00,,0836.1,4.99,0.00,24.4,22.9,00.0,32.7,26.1,27.0,0000.0,0004.10,0002.57,0002.23
2023-05-13 10:19:00,,0836.1,4.99,0.00,24.4,22.9,00.0,32.7,26.0,27.2,0000.0,0004.04,0002.56,0002.23
2023-05-13 10:20:00,,0836.1,5.01,0.00,24.4,22.9,00.0,32.7,26.0,27.2,0000.0,0004.06,0002.55,0002.24
2023-05-13 10:21:00,,0836.0,5.01,0.00,24.4,22.9,00.0,32.7,26.0,27.2,0000.0,0004.48,0002.51,0002.23
2023-05-13 10:22:00,,0835.9,5.00,0.00,24.3,22.8,00.0,32.7,26.0,27.2,0000.0,0004.55,0002.48,0002.20
2023-05-13 10:23:00,,0835.9,4.99,0.00,24.4,22.8,00.0,32.7,26.0,27.2,0000.0,0003.98,0002.44,0002.17
2023-05-13 10:24:00,,0835.9,5.00,0.00,24.4,22.8,00.0,32.7,26.0,27.1,0000.0,0003.71,0002.42,0002.16
2023-05-13 10:25:00,,0835.9,5.00,0.00,24.4,22.8,00.0,32.7,26.1,27.1,0000.0,0003.78,0002.44,0002.15
2023-05-13 10:26:00,,0836.0,5.01,0.00,24.4,22.8,00.0,32.7,26.0,27.1,0000.0,0003.81,0002.42,0002.12
2023-05-13 10:27:00,,0836.0,5.00,0.00,24.4,22.9,00.0,32.7,26.1,27.2,0000.0,0003.76,0002.37,0002.07
2023-05-13 10:28:00,,0836.1,5.00,0.00,24.4,22.9,00.0,32.7,26.1,27.2,0000.0,0003.85,0002.38,0002.04
2023-05-13 10:29:00,,0836.1,5.00,0.00,24.4,22.9,00.0,32.7,26.1,27.1,0000.0,0004.00,0002.40,0002.00
2023-05-13 10:30:00,,0836.1,5.00,0.00,24.4,23.0,00.0,32.7,26.1,27.1,0000.0,0003.95,0002.38,0001.98
2023-05-13 10:31:00,,0836.1,5.00,0.00,24.4,23.0,00.0,32.7,26.1,27.0,0000.0,0003.74,0002.33,0001.96
2023-05-13 10:32:00,,0836.1,5.01,0.00,24.4,23.0,00.0,32.7,26.1,27.0,0000.0,0003.16,0002.31,0001.96
2023-05-13 10:33:00,,0836.1,5.00,0.00,24.4,22.9,00.0,32.7,26.1,27.0,0000.0,0003.10,0002.33,0001.97
2023-05-13 10:34:00,,0836.1,5.00,0.00,24.4,22.9,00.0,32.7,26.1,26.9,0000.0,0003.16,0002.36,0002.00
2023-05-13 10:35:00,,0836.1,5.00,0.00,24.4,22.9,00.0,32.7,26.1,27.0,0000.0,0003.29,0002.41,0002.03
2023-05-13 10:36:00,,0836.0,4.99,0.00,24.4,22.8,00.0,32.7,26.1,27.1,0000.0,0003.48,0002.51,0002.11
2023-05-13 10:37:00,,0835.9,5.00,0.00,24.4,22.8,00.0,32.7,26.0,27.2,0000.0,0003.65,0002.64,0002.21
2023-05-13 10:38:00,,0836.0,5.00,0.00,24.4,22.7,00.0,32.7,26.0,27.2,0000.0,0003.86,0002.76,0002.31
2023-05-13 10:39:00,,0835.9,5.00,0.00,24.3,22.7,00.0,32.7,26.0,27.3,0000.0,0003.90,0002.85,0002.42
2023-05-13 10:40:00,,0836.0,5.00,0.00,24.3,22.6,00.0,32.7,25.9,27.5,0000.0,0004.95,0002.96,0002.55
2023-05-13 10:41:00,,0835.9,5.00,0.00,24.3,22.5,00.0,32.7,25.9,27.6,0000.0,0005.36,0003.11,0002.69
2023-05-13 10:42:00,,0835.9,5.00,0.00,24.2,22.5,00.0,32.7,25.8,27.6,0000.0,0005.53,0003.20,0002.83
2023-05-13 10:43:00,,0835.9,5.00,0.00,24.2,22.4,00.0,32.7,25.8,27.6,0000.0,0005.66,0003.26,0002.95
2023-05-13 10:44:00,,0835.8,5.00,0.00,24.2,22.3,00.0,32.7,25.8,27.5,0000.0,0005.79,0003.32,0003.04
2023-05-13 10:45:00,,0835.9,5.00,0.00,24.2,22.3,00.0,32.6,25.7,27.5,0000.0,0005.82,0003.34,0003.09
2023-05-13 10:46:00,,0835.8,5.00,0.00,24.2,22.4,00.0,32.6,25.7,27.3,0000.0,0005.74,0003.33,0003.09
2023-05-13 10:47:00,,0835.8,5.00,0.00,24.2,22.4,00.0,32.6,25.7,27.3,0000.0,0005.56,0003.31,0003.05
2023-05-13 10:48:00,,0835.8,5.00,0.00,24.2,22.4,00.0,32.6,25.7,27.2,0000.0,0005.49,0003.27,0003.00
2023-05-13 10:49:00,,0835.8,4.99,0.00,24.1,22.4,00.0,32.6,25.7,27.3,0000.0,0005.22,0003.19,0002.90
2023-05-13 10:50:00,,0835.8,4.99,0.00,24.1,22.4,00.0,32.6,25.7,27.2,0000.0,0005.32,0003.17,0002.79
2023-05-13 10:51:00,,0835.8,5.00,0.00,24.1,22.4,00.0,32.6,25.7,27.2,0000.0,0004.87,0003.07,0002.66
2023-05-13 10:52:00,,0835.8,5.01,0.00,24.1,22.4,00.0,32.6,25.7,27.2,0000.0,0004.58,0002.91,0002.54
2023-05-13 10:53:00,,0835.7,5.01,0.00,24.1,22.4,00.0,32.6,25.7,27.2,0000.0,0004.49,0002.79,0002.41
2023-05-13 10:54:00,,0835.7,5.01,0.00,24.1,22.4,00.0,32.5,25.7,27.2,0000.0,0004.44,0002.70,0002.31
2023-05-13 10:55:00,,0835.7,5.00,0.00,24.1,22.4,00.0,32.5,25.7,27.2,0000.0,0004.37,0002.62,0002.23
2023-05-13 10:56:00,,0835.7,5.01,0.00,24.1,22.4,00.0,32.5,25.7,27.2,0000.0,0004.56,0002.57,0002.17
2023-05-13 10:57:00,,0835.6,5.01,0.00,24.1,22.4,00.0,32.5,25.7,27.1,0000.0,0005.01,0002.56,0002.14
2023-05-13 10:58:00,,0835.7,5.00,0.00,24.1,22.4,00.0,32.5,25.6,27.1,0000.0,0004.89,0002.48,0002.09
2023-05-13 10:59:00,,0835.8,5.00,0.00,24.1,22.4,00.0,32.5,25.6,27.1,0000.0,0004.84,0002.42,0002.05
